Regional Weather Roundup
Issued by NWS

Home | Current Version | Previous Version | Graphics & Text | Print | Product List | Glossary On
Versions: 1 2 3 4 5 6 7 8 9 10 11 12 13 14 15 16 17 18 19 20 21 22 23 24 25 26 27 28 29 30 31 32 33 34 35 36 37 38 39 40 41 42 43 44 45 46 47 48 49 50
000
ASUS43 KFSD 211102
RWRSD

WEATHER ROUNDUP FOR SOUTH DAKOTA
NATIONAL WEATHER SERVICE SIOUX FALLS SD
600 AM CDT SAT OCT 21 2017

NOTE: "FAIR" INDICATES FEW OR NO CLOUDS BELOW 12,000 FEET WITH NO
SIGNIFICANT WEATHER AND/OR OBSTRUCTIONS TO VISIBILITY.


SDZ001>005-009-010-012>017-211200-
NORTHWEST AND NORTH CENTRAL SOUTH DAKOTA

CITY           SKY/WX    TMP DP  RH WIND       PRES   REMARKS
BUFFALO          N/A     48  30  49 W30G37    29.55R
FAITH            N/A     46  40  79 NW22G30   29.60R
MOBRIDGE       CLOUDY    55  44  66 NW17G25   29.45R
$$

SDZ012>016-024>037-041>051-057-063-072>074-211200-
SOUTHWEST AND SOUTH CENTRAL SOUTH DAKOTA

CITY           SKY/WX    TMP DP  RH WIND       PRES   REMARKS
RAPID CTY ARPT CLOUDY    50  31  48 NW21G31   29.63R
PIERRE         CLOUDY    57  45  64 NW26G35   29.50R
CUSTER         CLOUDY    39  25  57 NW7G16    29.68R
ELLSWORTH AFB  CLOUDY    50  29  44 NW21G36   29.64R
PHILIP         RAIN      47  42  83 NW26G41   29.56R
PINE RIDGE     LGT RAIN  50  40  68 W10       29.64R
SPEARFISH      FAIR      46  27  46 W16G25    29.70R
WINNER         FAIR      59  45  59 NW15      29.49R
$$

SDZ004>011-016>023-039-040-211200-
NORTHEAST SOUTH DAKOTA

CITY           SKY/WX    TMP DP  RH WIND       PRES   REMARKS
ABERDEEN       CLOUDY    62  58  86 W13       29.42R
WATERTOWN      CLEAR     61  58  90 S13       29.47R
BROOKINGS      CLOUDY    62  58  86 S15       29.51R
SISSETON         N/A     65  58  78 S16G25    29.42R
$$

SDZ017-020-022-023-036>040-048>070-211200-
SOUTHEAST SOUTH DAKOTA

CITY           SKY/WX    TMP DP  RH WIND       PRES   REMARKS
SIOUX FALLS    CLOUDY    66  60  81 S18G29    29.51S
HURON          CLOUDY    62  58  86 S12       29.43R
CHAMBERLAIN    CLOUDY    60  58  92 W16       29.45R
MITCHELL       CLOUDY    64  58  80 S13       29.45S
YANKTON        CLOUDY    68  61  78 VRB5      29.51R
$$

ABBREVIATIONS USED IN REMARKS
   TC - TEMPERATURE IN CELSIUS
  WCI - WIND CHILL INDEX
   HX - HEAT INDEX
  VSB - VISIBILITY




USA.gov is the U.S. government's official web portal to all federal, state and local government web resources and services.